• In Moldova, Republic
  • List of Countries
  • For 7 days
  • Water Temperature
  • Satellite Maps
  • Weather Map
  • Weather Widgets
  • user-avatar
    Login

    Hourly Weather Quito

    Today, 20 November, Monday

    Time Temperature Precipitation Wind Pressure Humidity
    00:00 +18°C° 0.7 mm 1 mps 622 mmHg 91%
    01:00 +15°C° 0 mm 0 mps 622 mmHg 89%
    02:00 +15°C° 0 mm 0 mps 622 mmHg 89%
    03:00 +16°C° 0 mm 0 mps 622 mmHg 89%
    04:00 +16°C° 0 mm 0 mps 622 mmHg 88%
    05:00 +18°C° 0 mm 1 mps 622 mmHg 87%
    06:00 +19°C° 0 mm 1 mps 622 mmHg 86%
    07:00 +20°C° 0 mm 1 mps 623 mmHg 83%
    08:00 +22°C° 0.6 mm 1 mps 624 mmHg 76%
    09:00 +23°C° 0.6 mm 2 mps 624 mmHg 70%
    10:00 +25°C° 0.6 mm 2 mps 624 mmHg 63%
    11:00 +25°C° 1 mm 2 mps 624 mmHg 62%
    12:00 +25°C° 1 mm 2 mps 624 mmHg 61%
    13:00 +25°C° 0 mm 2 mps 624 mmHg 63%
    14:00 +25°C° 1.3 mm 2 mps 623 mmHg 65%
    15:00 +24°C° 1.3 mm 1 mps 623 mmHg 68%
    16:00 +24°C° 1.3 mm 1 mps 623 mmHg 70%
    17:00 +22°C° 0.8 mm 1 mps 623 mmHg 75%
    18:00 +21°C° 0.8 mm 1 mps 622 mmHg 79%
    19:00 +19°C° 0.8 mm 1 mps 622 mmHg 83%
    20:00 +19°C° 0.4 mm 1 mps 623 mmHg 84%
    21:00 +18°C° 0.4 mm 1 mps 623 mmHg 85%
    22:00 +18°C° 0.4 mm 1 mps 623 mmHg 86%
    23:00 +18°C° 0.5 mm 1 mps 622 mmHg 87%

    Tomorrow, 21 November, Tuesday

    Time Temperature Precipitation Wind Pressure Humidity
    00:00 +16°C° 0.5 mm 1 mps 622 mmHg 88%
    01:00 +16°C° 0.5 mm 1 mps 622 mmHg 89%
    02:00 +16°C° 0.3 mm 1 mps 622 mmHg 91%
    03:00 +15°C° 0.3 mm 1 mps 622 mmHg 93%
    04:00 +15°C° 0.3 mm 1 mps 621 mmHg 94%
    05:00 +16°C° 0 mm 1 mps 622 mmHg 92%
    06:00 +16°C° 0 mm 0 mps 623 mmHg 90%
    07:00 +17°C° 0 mm 0 mps 623 mmHg 88%
    08:00 +21°C° 0.1 mm 1 mps 624 mmHg 78%
    09:00 +23°C° 0.1 mm 1 mps 624 mmHg 69%
    10:00 +25°C° 0.1 mm 1 mps 625 mmHg 59%
    11:00 +26°C° 0.8 mm 1 mps 624 mmHg 56%
    12:00 +27°C° 0.8 mm 1 mps 624 mmHg 54%
    13:00 +28°C° 0.8 mm 1 mps 624 mmHg 51%
    14:00 +28°C° 0.3 mm 1 mps 623 mmHg 53%
    15:00 +27°C° 0.3 mm 1 mps 622 mmHg 55%
    16:00 +24°C° 0.3 mm 0 mps 622 mmHg 57%
    17:00 +25°C° 0.1 mm 1 mps 622 mmHg 63%
    18:00 +23°C° 0.1 mm 1 mps 622 mmHg 68%
    19:00 +21°C° 0.1 mm 1 mps 622 mmHg 74%
    20:00 +20°C° 0.4 mm 1 mps 622 mmHg 79%
    21:00 +19°C° 0.4 mm 1 mps 622 mmHg 83%
    22:00 +19°C° 0.4 mm 1 mps 622 mmHg 88%
    23:00 +18°C° 2 mm 1 mps 622 mmHg 90%

    Day after tomorrow, 22 November, Wednesday

    Time Temperature Precipitation Wind Pressure Humidity
    00:00 +18°C° 2 mm 1 mps 622 mmHg 92%
    01:00 +18°C° 2 mm 1 mps 622 mmHg 95%
    02:00 +18°C° 1.4 mm 1 mps 622 mmHg 95%
    03:00 +16°C° 1.4 mm 1 mps 622 mmHg 95%
    04:00 +16°C° 1.4 mm 1 mps 621 mmHg 95%
    05:00 +18°C° 0.7 mm 1 mps 622 mmHg 94%
    06:00 +18°C° 0.7 mm 1 mps 622 mmHg 93%
    07:00 +18°C° 0.7 mm 1 mps 623 mmHg 93%
    08:00 +19°C° 0.4 mm 1 mps 623 mmHg 87%
    09:00 +21°C° 0.4 mm 1 mps 624 mmHg 81%
    10:00 +22°C° 0.4 mm 1 mps 625 mmHg 75%
    11:00 +23°C° 0.7 mm 2 mps 624 mmHg 71%
    12:00 +24°C° 0.7 mm 2 mps 623 mmHg 68%
    13:00 +25°C° 0.7 mm 2 mps 623 mmHg 64%
    14:00 +24°C° 0.9 mm 2 mps 622 mmHg 68%
    15:00 +23°C° 0.9 mm 2 mps 622 mmHg 72%
    16:00 +23°C° 0.9 mm 2 mps 621 mmHg 76%
    17:00 +21°C° 0.2 mm 1 mps 621 mmHg 78%
    18:00 +20°C° 0.2 mm 1 mps 621 mmHg 81%
    19:00 +19°C° 0.2 mm 1 mps 621 mmHg 84%
    20:00 +19°C° 0.2 mm 1 mps 621 mmHg 85%
    21:00 +18°C° 0.2 mm 1 mps 621 mmHg 86%
    22:00 +17°C° 0.2 mm 2 mps 622 mmHg 87%
    23:00 +17°C° 0.5 mm 2 mps 621 mmHg 87%

    23 November, Thursday

    Time Temperature Precipitation Wind Pressure Humidity
    00:00 +18°C° 0.5 mm 1 mps 621 mmHg 87%
    01:00 +18°C° 0.5 mm 1 mps 621 mmHg 88%
    02:00 +16°C° 0.2 mm 1 mps 621 mmHg 87%
    03:00 +16°C° 0.2 mm 1 mps 621 mmHg 86%
    04:00 +16°C° 0.2 mm 1 mps 620 mmHg 86%
    05:00 +18°C° 0 mm 1 mps 621 mmHg 85%
    06:00 +16°C° 0 mm 0 mps 622 mmHg 85%
    07:00 +17°C° 0 mm 0 mps 622 mmHg 84%
    08:00 +21°C° 0.3 mm 1 mps 623 mmHg 77%
    09:00 +23°C° 0.3 mm 1 mps 624 mmHg 70%
    10:00 +25°C° 0.3 mm 1 mps 624 mmHg 63%
    11:00 +24°C° 1.1 mm 1 mps 623 mmHg 66%
    12:00 +24°C° 1.1 mm 1 mps 623 mmHg 68%
    13:00 +24°C° 1.1 mm 1 mps 622 mmHg 70%
    14:00 +23°C° 1.1 mm 1 mps 621 mmHg 73%
    15:00 +23°C° 1.1 mm 1 mps 621 mmHg 75%
    16:00 +22°C° 1.1 mm 1 mps 621 mmHg 78%
    17:00 +21°C° 0.4 mm 1 mps 621 mmHg 82%
    18:00 +20°C° 0.4 mm 1 mps 621 mmHg 85%
    19:00 +18°C° 0.4 mm 1 mps 621 mmHg 89%
    20:00 +18°C° 0.2 mm 1 mps 621 mmHg 89%
    21:00 +16°C° 0.2 mm 0 mps 622 mmHg 89%
    22:00 +16°C° 0.2 mm 0 mps 622 mmHg 89%
    23:00 +15°C° 0.1 mm 0 mps 622 mmHg 90%

    24 November, Friday

    Time Temperature Precipitation Wind Pressure Humidity
    00:00 +15°C° 0.1 mm 0 mps 621 mmHg 92%
    01:00 +16°C° 0.1 mm 1 mps 621 mmHg 93%
    02:00 +15°C° 0.2 mm 0 mps 621 mmHg 94%
    03:00 +15°C° 0.2 mm 0 mps 621 mmHg 94%
    04:00 +15°C° 0.2 mm 0 mps 621 mmHg 95%
    05:00 +15°C° 0.5 mm 0 mps 621 mmHg 94%
    06:00 +15°C° 0.5 mm 0 mps 622 mmHg 94%
    07:00 +16°C° 0.5 mm 0 mps 622 mmHg 93%
    08:00 +16°C° 0.9 mm 0 mps 622 mmHg 91%
    09:00 +19°C° 0.9 mm 1 mps 623 mmHg 88%
    10:00 +19°C° 0.9 mm 1 mps 623 mmHg 86%
    11:00 +20°C° 0.6 mm 1 mps 622 mmHg 83%
    12:00 +21°C° 0.6 mm 1 mps 622 mmHg 81%
    13:00 +21°C° 0.6 mm 1 mps 622 mmHg 78%
    14:00 +21°C° 0.5 mm 1 mps 622 mmHg 79%
    15:00 +21°C° 0.5 mm 1 mps 621 mmHg 80%
    16:00 +20°C° 0.5 mm 2 mps 621 mmHg 80%
    17:00 +20°C° 0.5 mm 1 mps 621 mmHg 85%
    18:00 +19°C° 0.5 mm 1 mps 621 mmHg 89%
    19:00 +18°C° 0.5 mm 1 mps 622 mmHg 93%
    20:00 +18°C° 0.2 mm 1 mps 622 mmHg 94%
    21:00 +15°C° 0.2 mm 0 mps 622 mmHg 94%
    22:00 +15°C° 0.2 mm 0 mps 622 mmHg 94%
    23:00 +15°C° 0.1 mm 0 mps 622 mmHg 94%

    25 November, Saturday

    Time Temperature Precipitation Wind Pressure Humidity
    00:00 +15°C° 0.1 mm 0 mps 621 mmHg 94%
    01:00 +15°C° 0.1 mm 0 mps 621 mmHg 94%
    02:00 +15°C° 0 mm 0 mps 621 mmHg 94%
    03:00 +14°C° 0 mm 0 mps 620 mmHg 94%
    04:00 +14°C° 0 mm 0 mps 620 mmHg 95%
    05:00 +15°C° 0.1 mm 0 mps 621 mmHg 93%
    06:00 +16°C° 0.1 mm 0 mps 622 mmHg 91%
    07:00 +16°C° 0.1 mm 0 mps 623 mmHg 89%
    08:00 +19°C° 0.4 mm 1 mps 623 mmHg 87%
    09:00 +20°C° 0.4 mm 1 mps 623 mmHg 85%
    10:00 +21°C° 0.4 mm 1 mps 623 mmHg 83%
    11:00 +22°C° 0.6 mm 1 mps 623 mmHg 79%
    12:00 +23°C° 0.6 mm 1 mps 622 mmHg 76%
    13:00 +24°C° 0.6 mm 1 mps 622 mmHg 73%
    14:00 +23°C° 1 mm 1 mps 622 mmHg 76%
    15:00 +23°C° 1 mm 1 mps 621 mmHg 78%
    16:00 +22°C° 1 mm 1 mps 621 mmHg 81%
    17:00 +21°C° 0.8 mm 1 mps 621 mmHg 85%
    18:00 +20°C° 0.8 mm 1 mps 621 mmHg 89%
    19:00 +17°C° 0.8 mm 0 mps 621 mmHg 93%
    20:00 +17°C° 0.9 mm 0 mps 621 mmHg 93%
    21:00 +16°C° 0.9 mm 0 mps 622 mmHg 93%
    22:00 +16°C° 0.9 mm 0 mps 622 mmHg 93%
    23:00 +16°C° 0.6 mm 0 mps 621 mmHg 94%
    Show more